Waarnemingen

Advertentie
Mijn weer
Catania/Sigonella, Italië (16459): temperatuur & dauwpunt: 16.08.2018 01:00:00 - 22.08.2018 01:00:00 (CEST)Catania/Sigonella, Italië (16459): windsnelheid: 16.08.2018 01:00:00 - 22.08.2018 01:00:00 (CEST)Catania/Sigonella, Italië (16459): windrichting: 16.08.2018 01:00:00 - 22.08.2018 01:00:00 (CEST)Catania/Sigonella, Italië (16459): luchtdruk: 16.08.2018 01:00:00 - 22.08.2018 01:00:00 (CEST)Catania/Sigonella, Italië (16459): zicht: 16.08.2018 01:00:00 - 22.08.2018 01:00:00 (CEST)
Datum & Tijd tt [°C] td [°C] ff [km/u] ff [kn] dd ppp [hPa] vv [km]
22.08.2018 01:00:00 24,0 24,0 4 2 W - 10
22.08.2018 00:00:00 24,0 24,0 4 2 NNW - 10
21.08.2018 23:00:00 25,0 25,0 11 6 OZO 1013,3 12
21.08.2018 22:00:00 25,0 25,0 9 5 NO - 10
21.08.2018 21:00:00 26,0 26,0 8 4 ONO - 10
21.08.2018 20:00:00 26,0 26,0 13 7 ONO 1012,4 10
21.08.2018 19:00:00 26,0 26,0 18 10 ONO - 10
21.08.2018 18:00:00 28,0 26,0 22 12 O - 10
21.08.2018 17:00:00 28,0 24,2 24 13 O 1012,2 10
21.08.2018 16:00:00 29,0 24,0 29 16 O - 10
21.08.2018 15:00:00 29,0 24,0 31 17 ONO - 10
21.08.2018 14:00:00 29,8 23,7 24 13 O 1012,9 15
21.08.2018 13:00:00 29,0 23,0 24 13 O - 10
21.08.2018 12:00:00 29,0 23,0 29 16 O - 10
21.08.2018 11:00:00 26,8 23,1 24 13 O 1013,6 15
21.08.2018 10:00:00 26,0 24,0 8 4 ONO - 10
21.08.2018 09:00:00 - - - - - - -
21.08.2018 08:00:00 20,6 20,6 0 0 N 1012,8 10
21.08.2018 07:00:00 20,0 20,0 5 3 ZW - 10
21.08.2018 06:00:00 20,0 20,0 9 5 W - 10
21.08.2018 05:00:00 20,6 20,6 9 5 W 1012,3 10
21.08.2018 04:00:00 21,0 21,0 8 4 W - 10
21.08.2018 03:00:00 20,0 20,0 11 6 W - 10
21.08.2018 02:00:00 20,6 20,6 5 3 WZW 1012,4 10
21.08.2018 01:00:00 21,0 21,0 5 3 W - 10
21.08.2018 00:00:00 22,0 22,0 8 4 W - 10
20.08.2018 23:00:00 22,8 22,8 9 5 W 1012,2 10
20.08.2018 22:00:00 23,0 23,0 8 4 W - 10
20.08.2018 21:00:00 - - - - - - -
20.08.2018 20:00:00 26,0 23,7 9 5 O 1011,3 15
20.08.2018 19:00:00 26,0 22,0 16 9 O - 10
20.08.2018 18:00:00 27,0 22,0 21 11 O - 10
20.08.2018 17:00:00 27,6 22,8 28 15 O 1010,8 12
20.08.2018 16:00:00 28,0 23,0 21 11 O - 10
20.08.2018 15:00:00 29,0 23,0 21 11 O - 10
20.08.2018 14:00:00 28,0 26,4 13 7 OZO 1012,7 12
20.08.2018 13:00:00 25,0 25,0 15 8 OZO - 10
20.08.2018 12:00:00 22,0 22,0 4 2 W - 10
20.08.2018 11:00:00 22,0 22,0 11 6 N 1013,3 6
20.08.2018 10:00:00 25,0 25,0 16 9 NW - 10
20.08.2018 09:00:00 25,0 25,0 15 8 NW - 10
20.08.2018 08:00:00 23,8 23,8 9 5 W 1011,6 15
20.08.2018 07:00:00 22,0 22,0 4 2 ZW - 10
20.08.2018 06:00:00 23,0 23,0 4 2 W - 10
20.08.2018 05:00:00 22,2 22,2 9 5 WZW 1011,1 13
20.08.2018 04:00:00 23,0 23,0 8 4 WNW - 10
20.08.2018 03:00:00 22,0 22,0 8 4 ZW - 10
20.08.2018 02:00:00 24,0 24,0 5 3 NNW 1012,4 13
20.08.2018 01:00:00 25,0 25,0 13 7 WNW - 10
20.08.2018 00:00:00 25,0 25,0 21 11 W - 10
19.08.2018 23:00:00 25,2 25,2 13 7 NW 1013,5 15
19.08.2018 22:00:00 27,0 27,0 4 2 N - 10
19.08.2018 21:00:00 27,0 27,0 9 5 ONO - 10
19.08.2018 20:00:00 27,6 25,6 15 8 O 1013,2 10
19.08.2018 19:00:00 30,0 23,0 21 11 NO - 10
19.08.2018 18:00:00 32,0 22,0 18 10 O - 10
19.08.2018 17:00:00 31,6 22,3 22 12 O 1013,6 10
19.08.2018 16:00:00 31,0 23,0 26 14 O - 10
19.08.2018 15:00:00 32,0 23,0 26 14 O - 10
19.08.2018 14:00:00 34,6 20,2 9 5 ZW 1014,3 10
19.08.2018 13:00:00 33,0 19,0 5 3 W - 10
19.08.2018 12:00:00 32,0 21,0 5 3 W - 10
19.08.2018 11:00:00 30,6 24,0 8 4 WZW 1015,8 10
19.08.2018 10:00:00 28,0 24,0 5 3 W - 10
19.08.2018 09:00:00 25,0 25,0 8 4 WNW - 10
19.08.2018 08:00:00 22,2 22,2 11 6 WZW 1015,7 10
19.08.2018 07:00:00 20,0 20,0 9 5 WZW - 10
19.08.2018 06:00:00 20,0 20,0 8 4 W - 10
19.08.2018 05:00:00 20,6 20,6 11 6 WNW 1016,0 10
19.08.2018 04:00:00 21,0 21,0 11 6 W - 10
19.08.2018 03:00:00 21,0 21,0 11 6 W - 10
19.08.2018 02:00:00 21,6 21,6 9 5 W 1016,9 10
19.08.2018 01:00:00 22,0 22,0 8 4 W - 10
19.08.2018 00:00:00 21,0 21,0 9 5 W - 10
18.08.2018 23:00:00 21,8 21,8 13 7 WZW 1016,8 10
18.08.2018 22:00:00 22,0 22,0 9 5 ZZW - 10
18.08.2018 21:00:00 24,0 24,0 9 5 W - 10
18.08.2018 20:00:00 24,0 24,0 9 5 WZW 1015,6 16
18.08.2018 19:00:00 24,0 24,0 13 7 WNW - 10
18.08.2018 18:00:00 25,0 25,0 21 11 W - 10
18.08.2018 17:00:00 26,8 21,8 11 6 WZW 1015,5 16
18.08.2018 16:00:00 30,0 24,0 22 12 OZO - 10
18.08.2018 15:00:00 32,0 25,0 24 13 ONO - 10
18.08.2018 14:00:00 32,0 24,3 18 10 O 1014,7 18
18.08.2018 13:00:00 33,0 24,0 18 10 O - 10
18.08.2018 12:00:00 32,0 24,0 9 5 O - 10
18.08.2018 11:00:00 32,2 24,5 8 4 OZO 1015,8 16
18.08.2018 10:00:00 29,0 26,0 4 2 WZW - 10
18.08.2018 09:00:00 26,0 26,0 8 4 W - 10
18.08.2018 08:00:00 22,4 22,4 5 3 W 1015,4 15
18.08.2018 07:00:00 22,0 22,0 8 4 W - 10
18.08.2018 06:00:00 23,0 23,0 8 4 WNW - 10
18.08.2018 05:00:00 23,0 23,0 9 5 W 1014,7 10
18.08.2018 04:00:00 23,0 23,0 11 6 W - 10
18.08.2018 03:00:00 24,0 24,0 9 5 ZW - 10
18.08.2018 02:00:00 24,0 24,0 9 5 NW 1015,0 10
18.08.2018 01:00:00 24,0 24,0 11 6 WZW - 10
18.08.2018 00:00:00 25,0 25,0 9 5 NW - 10
17.08.2018 23:00:00 26,0 26,0 4 2 N 1015,5 10
17.08.2018 22:00:00 26,0 26,0 11 6 ONO - 10
17.08.2018 21:00:00 26,0 26,0 13 7 ONO - 10
17.08.2018 20:00:00 26,8 26,8 18 10 ONO 1014,3 10
17.08.2018 19:00:00 27,0 27,0 22 12 ONO - 10
17.08.2018 18:00:00 29,0 24,0 29 16 ONO - 10
17.08.2018 17:00:00 29,8 24,2 35 19 O 1013,4 10
17.08.2018 16:00:00 32,0 25,0 34 18 O - 10
17.08.2018 15:00:00 33,0 25,0 22 12 O - 10
17.08.2018 14:00:00 32,8 27,1 21 11 O 1014,1 10
17.08.2018 13:00:00 34,0 24,0 8 4 NW - 10
17.08.2018 12:00:00 33,0 27,0 5 3 WZW - 10
17.08.2018 11:00:00 31,8 26,8 4 2 NNW 1015,1 10
17.08.2018 10:00:00 28,0 26,0 13 7 W - 10
17.08.2018 09:00:00 26,0 25,0 9 5 WNW - 10
17.08.2018 08:00:00 22,8 22,8 8 4 W 1014,8 12
17.08.2018 07:00:00 22,0 22,0 11 6 W - 10
17.08.2018 06:00:00 21,0 21,0 8 4 W - 10
17.08.2018 05:00:00 22,6 22,6 11 6 WNW 1014,2 15
17.08.2018 04:00:00 23,0 23,0 8 4 WZW - 10
17.08.2018 03:00:00 23,0 23,0 5 3 ZW - 10
17.08.2018 02:00:00 24,0 24,0 4 2 NW 1014,2 15
17.08.2018 01:00:00 25,0 25,0 4 2 WNW - 10
17.08.2018 00:00:00 25,0 25,0 4 2 ONO - 10
16.08.2018 23:00:00 25,2 25,2 4 2 NNO 1013,7 15
16.08.2018 22:00:00 25,0 25,0 11 6 OZO - 10
16.08.2018 21:00:00 26,0 26,0 15 8 O - 10
16.08.2018 20:00:00 27,0 23,9 22 12 O 1012,4 15
16.08.2018 19:00:00 27,0 24,0 26 14 O - 10
16.08.2018 18:00:00 29,0 23,0 29 16 O - 10
16.08.2018 17:00:00 32,0 21,8 28 15 O 1012,0 15
16.08.2018 16:00:00 32,0 21,0 21 11 O - 10
16.08.2018 15:00:00 32,0 20,0 16 9 O - 10
16.08.2018 14:00:00 32,0 21,2 18 10 O 1012,7 15
16.08.2018 13:00:00 31,0 21,0 11 6 O - 10
16.08.2018 12:00:00 30,0 22,0 5 3 ZO - 10
16.08.2018 11:00:00 28,0 22,7 4 2 ZZW 1013,2 15
16.08.2018 10:00:00 26,0 24,0 8 4 W - 10
16.08.2018 09:00:00 23,0 23,0 9 5 W - 10
16.08.2018 08:00:00 20,0 20,0 8 4 WNW 1012,5 10
16.08.2018 07:00:00 19,0 19,0 4 2 WZW - 10
16.08.2018 06:00:00 19,0 19,0 2 1 Z - 10
16.08.2018 05:00:00 19,6 19,6 4 2 NNO 1011,8 10
16.08.2018 04:00:00 20,0 20,0 8 4 Z - 10
16.08.2018 03:00:00 20,0 20,0 8 4 W - 10
16.08.2018 02:00:00 20,0 20,0 4 2 WNW 1012,5 10
16.08.2018 01:00:00 21,0 21,0 16 9 WNW - 10

tt = temperatuur
td = dauwpunt
ff = windsnelheid
dd = windrichting
ppp = luchtdruk
vv = zicht

Weerstations in de omgeving